Simultaneous Nadir Overpasses (SNOs) Predictions

Prediction of SNOs between LANDSAT-8 and NOAA-19 Satellite Orbit:

Table of predicted SNOs for the next 14.0 days since TLE Epoch: 4/8/2016
Index Date (LANDSAT-8) Time (LANDSAT-8) Lat,Lon (LANDSAT-8) SZA (LANDSAT-8 ) Date (NOAA-19) Time (NOAA-19) Lat,Lon (NOAA-19) SZA (NOAA-19 ) Distance(km) Time Diff (sec)
1 04/10/2016 01:04:24 -74.45, -12.14 113.65 04/10/2016 01:04:00 -74.45, -12.05 113.65 2.94 24
2 04/10/2016 01:53:51 74.38, 155.32 66.26 04/10/2016 01:54:58 74.38, 155.41 66.27 2.77 67
3 04/12/2016 06:38:06 74.47, 84.46 65.55 04/12/2016 06:38:05 74.46, 84.44 65.55 0.59 1
4 04/14/2016 11:22:21 74.50, 13.47 64.80 04/14/2016 11:21:10 74.51, 13.59 64.81 3.86 71
5 04/14/2016 12:11:50 -74.43,-179.07 115.29 04/14/2016 12:12:12 -74.43,-178.95 115.29 3.39 22
6 04/16/2016 16:56:05 -74.51, 110.06 115.99 04/16/2016 16:55:19 -74.51, 110.11 115.99 1.85 46
7 04/16/2016 17:45:32 74.43, -82.50 63.92 04/16/2016 17:46:16 74.46, -82.50 63.96 3.56 44
8 04/18/2016 22:29:47 74.50,-153.40 63.23 04/18/2016 22:29:22 74.51,-153.37 63.25 1.60 25
9 04/18/2016 23:19:16 -74.44, 14.08 116.85 04/18/2016 23:20:25 -74.44, 14.07 116.84 0.37 69
10 04/21/2016 04:03:31 -74.51, -56.82 117.53 04/21/2016 04:03:32 -74.52, -56.90 117.51 3.02 1




NCC Satellite Simultaneous Nadir Overpasses (SNOs) Prediction Service
